Weather History for KHWY - March, 2013

Change the Weather History Date:

Tuesday, March 5, 2013

  Actual Average (KHEF) Record (KHEF)
Temperature  
Mean Temperature 40 °F -  
Max Temperature 53 °F 49 °F 77 °F (2004)
Min Temperature 28 °F 27 °F 10 °F (2014)
Degree Days  
Heating Degree Days 25    
Moisture  
Dew Point 28 °F    
Average Humidity 64    
Maximum Humidity 100    
Minimum Humidity 35    
Precipitation  
Precipitation 0.09 in - - ()
Sea Level Pressure  
Sea Level Pressure 29.97 in    
Wind  
Wind Speed 2 mph (ESE)    
Max Wind Speed 13 mph    
Max Gust Speed 17 mph    
Visibility 9 miles    
Events Rain , Snow    
Averages and records for this station are not official NWS values.
T = Trace of Precipitation, MM = Missing Value Source: NWS Daily Summary

Daily Weather History Graph

Daily Weather History Graph

Search for Another Location

Airport or City:

Trip Planner

Search our weather history database for the weather conditions in past years. The results will help you decide how hot, cold, wet, or windy it might be!

Date:

Astronomy

Mar. 05, 2013 Rise Set
Actual Time 6:36 AM EST 6:08 PM EST
Civil Twilight 6:10 AM EST 6:34 PM EST
Nautical Twilight 5:39 AM EST 7:05 PM EST
Astronomical Twilight 5:08 AM EST 7:36 PM EST
Moon 1:44 AM EST (3/5) 11:48 AM EST (3/5)
Length of Visible Light 12h 24m
Length of Day
11h 31m
Last Quarter, 41% of the Moon is Illuminated
Mar 5
Last Quarter
Mar 11
New
Mar 19
First Quarter
Mar 27
Full
Apr 3
Last Quarter

Hourly Weather History & Observations

Time (EST) Temp. Windchill Dew Point Humidity Pressure Visibility Wind Dir Wind Speed Gust Speed Precip Events Conditions
12:15 AM 28.8 °F - 23.9 °F 82% 30.04 in 10.0 mi Calm Calm - N/A   Clear
12:35 AM 30.6 °F - 24.3 °F 77% 30.04 in 10.0 mi Calm Calm - N/A   Clear
12:55 AM 30.7 °F 27.3 °F 24.3 °F 77% 30.04 in 10.0 mi ESE 3.5 mph - N/A   Clear
1:15 AM 32.9 °F - 23.9 °F 69% 30.04 in 10.0 mi Calm Calm - N/A   Clear
1:55 AM 30.7 °F - 26.2 °F 83% 30.04 in 10.0 mi Calm Calm - N/A   Clear
2:15 AM 31.5 °F - 25.5 °F 79% 30.04 in 10.0 mi Calm Calm - N/A   Clear
2:55 AM 30.7 °F - 26.6 °F 85% 30.04 in 10.0 mi Calm Calm - N/A   Clear
3:15 AM 30.0 °F - 27.0 °F 88% 30.04 in 10.0 mi Calm Calm - N/A   Clear
3:35 AM 29.7 °F - 26.4 °F 88% 30.05 in 10.0 mi Calm Calm - N/A   Clear
3:55 AM 29.8 °F - 27.3 °F 90% 30.06 in 10.0 mi Calm Calm - N/A   Clear
4:15 AM 30.4 °F - 26.4 °F 85% 30.05 in 10.0 mi Calm Calm - N/A   Clear
4:35 AM 30.9 °F 27.5 °F 25.7 °F 81% 30.05 in 10.0 mi ESE 3.5 mph - N/A   Scattered Clouds
4:55 AM 28.9 °F - 26.8 °F 92% 30.05 in 10.0 mi Calm Calm - N/A   Clear
5:15 AM 29.3 °F - 26.8 °F 90% 30.05 in 10.0 mi Calm Calm - N/A   Scattered Clouds
5:35 AM 28.4 °F - 27.1 °F 95% 30.05 in 10.0 mi Calm Calm - N/A   Scattered Clouds
5:55 AM 29.1 °F - 27.0 °F 92% 30.06 in 10.0 mi Calm Calm - N/A   Mostly Cloudy
6:15 AM 29.5 °F - 27.0 °F 90% 30.06 in 10.0 mi Calm Calm - N/A   Mostly Cloudy
6:35 AM 31.1 °F 26.4 °F 27.0 °F 85% 30.05 in 10.0 mi NNE 4.6 mph - N/A   Overcast
6:55 AM 30.7 °F - 26.2 °F 83% 30.06 in 10.0 mi Calm Calm - N/A   Overcast
7:15 AM 29.1 °F - 27.3 °F 93% 30.07 in 10.0 mi Calm Calm - N/A   Scattered Clouds
8:15 AM 37.2 °F - 27.3 °F 67% 30.07 in 10.0 mi Calm Calm - N/A   Clear
8:35 AM 40.1 °F - 27.0 °F 59% 30.07 in 10.0 mi Calm Calm - N/A   Clear
8:55 AM 41.7 °F 39.8 °F 24.8 °F 51% 30.07 in 10.0 mi SSE 3.5 mph - N/A   Clear
9:15 AM 42.8 °F - 24.6 °F 49% 30.07 in 10.0 mi Calm Calm - N/A   Clear
9:35 AM 43.5 °F - 24.3 °F 47% 30.06 in 10.0 mi Calm Calm - N/A   Scattered Clouds
9:55 AM 44.2 °F - 25.7 °F 48% 30.05 in 10.0 mi Calm Calm - N/A   Mostly Cloudy
10:15 AM 45.0 °F - 25.2 °F 46% 30.05 in 10.0 mi Calm Calm - N/A   Scattered Clouds
10:35 AM 46.4 °F 45.2 °F 26.2 °F 45% 30.03 in 10.0 mi SSE 3.5 mph - N/A   Clear
10:55 AM 47.5 °F - 25.7 °F 43% 30.03 in 10.0 mi Calm Calm - N/A   Clear
11:15 AM 48.2 °F - 25.0 °F 40% 30.03 in 10.0 mi SSE 4.6 mph - N/A   Mostly Cloudy
11:35 AM 47.5 °F - 23.2 °F 38% 30.02 in 10.0 mi Calm Calm - N/A   Overcast
11:55 AM 47.7 °F - 23.2 °F 38% 30.01 in 10.0 mi South 3.5 mph - N/A   Overcast
12:15 PM 49.3 °F - 25.5 °F 40% 30.00 in 10.0 mi South 5.8 mph - N/A   Overcast
12:35 PM 49.5 °F - 23.9 °F 37% 30.00 in 10.0 mi SSW 3.5 mph - N/A   Overcast
12:55 PM 50.2 °F - 24.4 °F 37% 29.98 in 10.0 mi Calm Calm - N/A   Overcast
1:15 PM 50.4 °F - 24.3 °F 36% 29.97 in 10.0 mi Calm Calm - N/A   Scattered Clouds
1:35 PM 50.9 °F - 23.9 °F 35% 29.96 in 10.0 mi Calm Calm - N/A   Mostly Cloudy
1:55 PM 52.2 °F - 26.1 °F 36% 29.94 in 10.0 mi SE 5.8 mph - N/A   Mostly Cloudy
2:15 PM 51.1 °F - 24.8 °F 36% 29.94 in 10.0 mi Calm Calm - N/A   Scattered Clouds
2:35 PM 51.8 °F - 26.6 °F 38% 29.92 in 10.0 mi East 4.6 mph - N/A   Scattered Clouds
2:55 PM 50.9 °F - 26.2 °F 38% 29.91 in 10.0 mi East 5.8 mph - N/A   Mostly Cloudy
3:15 PM 52.3 °F - 27.1 °F 38% 29.91 in 10.0 mi SE 3.5 mph - N/A   Overcast
3:35 PM 52.3 °F - 27.7 °F 39% 29.91 in 10.0 mi ESE 8.1 mph - N/A   Mostly Cloudy
3:55 PM 51.8 °F - 28.2 °F 40% 29.91 in 10.0 mi SE 10.4 mph - N/A   Overcast
4:15 PM 51.8 °F - 28.4 °F 41% 29.91 in 10.0 mi ESE 10.4 mph - N/A   Mostly Cloudy
4:35 PM 50.0 °F - 28.0 °F 43% 29.91 in 10.0 mi ESE 9.2 mph - N/A   Overcast
4:55 PM 49.3 °F - 28.0 °F 44% 29.91 in 10.0 mi East 9.2 mph - N/A   Overcast
5:15 PM 49.1 °F - 28.0 °F 44% 29.91 in 10.0 mi ESE 6.9 mph - N/A   Overcast
5:35 PM 48.4 °F - 27.3 °F 44% 29.90 in 10.0 mi ESE 6.9 mph - N/A   Overcast
5:55 PM 48.2 °F - 27.5 °F 45% 29.90 in 10.0 mi ESE 9.2 mph - N/A   Overcast
6:15 PM 47.7 °F - 27.7 °F 46% 29.90 in 10.0 mi ESE 9.2 mph - N/A   Overcast
6:35 PM 47.3 °F - 28.6 °F 48% 29.89 in 10.0 mi ESE 11.5 mph - N/A   Overcast
6:55 PM 46.9 °F - 28.2 °F 48% 29.89 in 10.0 mi ESE 8.1 mph - N/A   Overcast
7:15 PM 46.4 °F 41.9 °F 28.6 °F 50% 29.88 in 10.0 mi ESE 9.2 mph - N/A   Overcast
7:35 PM 46.4 °F 41.9 °F 28.4 °F 50% 29.88 in 10.0 mi ESE 9.2 mph - N/A   Overcast
7:55 PM 44.4 °F 38.6 °F 29.8 °F 57% 29.89 in 10.0 mi East 11.5 mph - N/A   Overcast
8:15 PM 43.3 °F 36.8 °F 31.5 °F 63% 29.88 in 10.0 mi East 12.7 mph 16.1 mph N/A   Overcast
8:35 PM 42.3 °F 36.3 °F 33.6 °F 71% 29.87 in 10.0 mi SE 10.4 mph 17.3 mph N/A   Light Drizzle
8:55 PM 41.4 °F 35.7 °F 35.2 °F 79% 29.85 in 10.0 mi ESE 9.2 mph - N/A   Light Drizzle
9:15 PM 41.0 °F 35.2 °F 34.7 °F 78% 29.85 in 10.0 mi ESE 9.2 mph - N/A   Light Drizzle
9:35 PM 40.1 °F 34.1 °F 35.8 °F 85% 29.85 in 10.0 mi ESE 9.2 mph - N/A   Light Drizzle
9:55 PM 38.5 °F 36.1 °F 36.9 °F 94% 29.85 in 10.0 mi SSE 3.5 mph - N/A Rain Light Rain
10:15 PM 37.4 °F 33.8 °F 37.4 °F 100% 29.84 in 7.0 mi East 4.6 mph - N/A Rain Rain
10:35 PM 35.6 °F 32.8 °F 35.6 °F 100% 29.84 in 3.0 mi East 3.5 mph - 0.02 in Rain Heavy Rain
10:55 PM 34.9 °F - 34.9 °F 100% 29.83 in 1.2 mi Calm Calm - 0.04 in Snow Snow
11:15 PM 34.7 °F 30.6 °F 34.7 °F 100% 29.81 in 1.5 mi NE 4.6 mph - 0.01 in Snow Light Snow
11:35 PM 34.7 °F 30.6 °F 34.7 °F 100% 29.79 in 1.0 mi NE 4.6 mph - 0.03 in Snow Light Snow
11:55 PM 34.7 °F 28.8 °F 34.7 °F 100% 29.77 in 2.0 mi NE 6.9 mph - 0.05 in Snow Light Snow